Time,TemperatureF,DewpointF,PressureIn,WindDirection,WindDirectionDegrees,WindSpeedMPH,WindSpeedGustMPH,Humidity,HourlyPrecipIn,Conditions,Clouds,dailyrainin,SoftwareType,DateUTC
2013-09-22 00:12:00,51.0,35.0,-100.00,South,183,17.0,30.0,54,-99.99,,,-99.99,,2013-09-22 06:12:00,
2013-09-22 00:22:00,51.0,36.0,-100.00,South,176,23.0,42.0,57,-99.99,,,-99.99,,2013-09-22 06:22:00,
2013-09-22 00:42:00,50.0,37.0,-100.00,South,179,20.0,33.0,60,-99.99,,,-99.99,,2013-09-22 06:42:00,
2013-09-22 00:52:00,50.0,37.0,-100.00,South,185,18.0,33.0,61,-99.99,,,-99.99,,2013-09-22 06:52:00,
2013-09-22 01:11:00,50.0,37.0,-100.00,South,184,19.0,33.0,61,-99.99,,,-99.99,,2013-09-22 07:11:00,
2013-09-22 01:21:00,50.0,37.0,-100.00,South,186,19.0,38.0,61,-99.99,,,-99.99,,2013-09-22 07:21:00,
2013-09-22 01:42:00,50.0,36.0,-100.00,South,182,18.0,36.0,58,-99.99,,,-99.99,,2013-09-22 07:42:00,
2013-09-22 01:52:00,50.0,35.0,-100.00,South,185,19.0,34.0,57,-99.99,,,-99.99,,2013-09-22 07:52:00,
2013-09-22 02:11:00,50.0,35.0,-100.00,SSW,197,20.0,35.0,56,-99.99,,,-99.99,,2013-09-22 08:11:00,
2013-09-22 02:22:00,49.0,34.0,-100.00,SSW,198,21.0,37.0,56,-99.99,,,-99.99,,2013-09-22 08:22:00,
2013-09-22 02:42:00,49.0,34.0,-100.00,SSW,198,19.0,38.0,56,-99.99,,,-99.99,,2013-09-22 08:42:00,
2013-09-22 02:52:00,49.0,34.0,-100.00,SSW,194,23.0,41.0,56,-99.99,,,-99.99,,2013-09-22 08:52:00,
2013-09-22 03:11:00,49.0,34.0,-100.00,South,190,22.0,36.0,56,-99.99,,,-99.99,,2013-09-22 09:11:00,
2013-09-22 03:21:00,48.0,33.0,-100.00,SSW,206,20.0,36.0,56,-99.99,,,-99.99,,2013-09-22 09:21:00,
2013-09-22 03:43:00,48.0,34.0,-100.00,SSW,202,17.0,30.0,57,-99.99,,,-99.99,,2013-09-22 09:43:00,
2013-09-22 03:53:00,48.0,34.0,-100.00,SSW,198,20.0,41.0,57,-99.99,,,-99.99,,2013-09-22 09:53:00,
2013-09-22 04:12:00,48.0,34.0,-100.00,SSW,203,18.0,35.0,58,-99.99,,,-99.99,,2013-09-22 10:12:00,
2013-09-22 04:23:00,47.0,34.0,-100.00,SSW,198,16.0,30.0,60,-99.99,,,-99.99,,2013-09-22 10:23:00,
2013-09-22 04:44:00,47.0,34.0,-100.00,SSW,203,15.0,33.0,61,-99.99,,,-99.99,,2013-09-22 10:44:00,
2013-09-22 04:53:00,47.0,35.0,-100.00,South,190,17.0,32.0,62,-99.99,,,-99.99,,2013-09-22 10:53:00,
2013-09-22 05:12:00,47.0,35.0,-100.00,South,181,17.0,33.0,63,-99.99,,,-99.99,,2013-09-22 11:12:00,
2013-09-22 05:22:00,47.0,35.0,-100.00,South,176,16.0,31.0,62,-99.99,,,-99.99,,2013-09-22 11:22:00,
2013-09-22 05:42:00,47.0,33.0,-100.00,South,173,18.0,37.0,59,-99.99,,,-99.99,,2013-09-22 11:42:00,
2013-09-22 05:52:00,47.0,33.0,-100.00,South,177,21.0,35.0,57,-99.99,,,-99.99,,2013-09-22 11:52:00,
2013-09-22 06:12:00,47.0,33.0,-100.00,South,182,16.0,26.0,57,-99.99,,,-99.99,,2013-09-22 12:12:00,
2013-09-22 06:22:00,47.0,33.0,-100.00,South,186,12.0,21.0,58,-99.99,,,-99.99,,2013-09-22 12:22:00,
2013-09-22 06:42:00,47.0,33.0,-100.00,SSW,198,15.0,27.0,57,-99.99,,,-99.99,,2013-09-22 12:42:00,
2013-09-22 06:52:00,46.0,32.0,-100.00,SW,216,11.0,21.0,57,-99.99,,,-99.99,,2013-09-22 12:52:00,
2013-09-22 07:12:00,46.0,32.0,-100.00,SSW,211,11.0,20.0,58,-99.99,,,-99.99,,2013-09-22 13:12:00,
2013-09-22 07:21:00,46.0,32.0,-100.00,SW,215,10.0,19.0,59,-99.99,,,-99.99,,2013-09-22 13:21:00,
2013-09-22 07:42:00,46.0,33.0,-100.00,SSW,208,10.0,22.0,60,-99.99,,,-99.99,,2013-09-22 13:42:00,
2013-09-22 07:52:00,46.0,33.0,-100.00,SW,222,10.0,19.0,61,-99.99,,,-99.99,,2013-09-22 13:52:00,
2013-09-22 08:00:00,44.0,42.0,-100.00,SE,145,14.0,19.0,92,-99.99,,,-99.99,,2013-09-22 14:00:00,
2013-09-22 08:11:00,46.0,34.0,-100.00,SSW,212,12.0,21.0,62,-99.99,,,-99.99,,2013-09-22 14:11:00,
2013-09-22 08:22:00,46.0,34.0,-100.00,South,186,11.0,21.0,63,-99.99,,,-99.99,,2013-09-22 14:22:00,
2013-09-22 08:42:00,44.0,42.0,-100.00,SE,145,14.0,19.0,92,-99.99,,,-99.99,,2013-09-22 14:42:00,
2013-09-22 08:52:00,44.0,42.0,-100.00,SE,145,14.0,19.0,92,-99.99,,,-99.99,,2013-09-22 14:52:00,
2013-09-22 15:23:00,49.0,43.0,-100.00,North,356,4.0,10.0,79,-99.99,,,-99.99,,2013-09-22 21:23:00,
2013-09-22 15:44:00,51.0,45.0,-100.00,ESE,102,4.0,14.0,80,-99.99,,,-99.99,,2013-09-22 21:44:00,
2013-09-22 15:54:00,48.0,47.0,-100.00,North,4,6.0,13.0,96,-99.99,,,-99.99,,2013-09-22 21:54:00,
2013-09-22 16:14:00,48.0,48.0,-100.00,NNW,337,8.0,12.0,99,-99.99,,,-99.99,,2013-09-22 22:14:00,
2013-09-22 16:24:00,51.0,47.0,-100.00,NW,321,4.0,9.0,87,-99.99,,,-99.99,,2013-09-22 22:24:00,
2013-09-22 16:43:00,52.0,46.0,-100.00,NNW,340,3.0,9.0,81,-99.99,,,-99.99,,2013-09-22 22:43:00,
2013-09-22 16:53:00,50.0,45.0,-100.00,NNW,347,6.0,13.0,84,-99.99,,,-99.99,,2013-09-22 22:53:00,
2013-09-22 17:12:00,48.0,45.0,-100.00,NW,315,6.0,11.0,89,-99.99,,,-99.99,,2013-09-22 23:12:00,
2013-09-22 17:22:00,45.0,44.0,-100.00,West,262,3.0,9.0,98,-99.99,,,-99.99,,2013-09-22 23:22:00,
2013-09-22 17:43:00,43.0,43.0,-100.00,West,263,8.0,15.0,100,-99.99,,,-99.99,,2013-09-22 23:43:00,
2013-09-22 17:52:00,45.0,44.0,-100.00,West,267,7.0,19.0,98,-99.99,,,-99.99,,2013-09-22 23:52:00,
2013-09-22 18:12:00,45.0,44.0,-100.00,West,273,8.0,21.0,96,-99.99,,,-99.99,,2013-09-23 00:12:00,
2013-09-22 18:23:00,43.0,43.0,-100.00,West,277,10.0,21.0,100,-99.99,,,-99.99,,2013-09-23 00:23:00,
2013-09-22 18:42:00,43.0,43.0,-100.00,WNW,283,7.0,17.0,100,-99.99,,,-99.99,,2013-09-23 00:42:00,
2013-09-22 18:53:00,41.0,41.0,-100.00,West,279,7.0,20.0,100,-99.99,,,-99.99,,2013-09-23 00:53:00,
2013-09-22 19:12:00,40.0,40.0,-100.00,West,278,13.0,25.0,100,-99.99,,,-99.99,,2013-09-23 01:12:00,
2013-09-22 19:22:00,40.0,40.0,-100.00,West,274,15.0,33.0,100,-99.99,,,-99.99,,2013-09-23 01:22:00,
2013-09-22 19:43:00,39.0,39.0,-100.00,West,270,20.0,30.0,100,-99.99,,,-99.99,,2013-09-23 01:43:00,
2013-09-22 19:52:00,39.0,39.0,-100.00,West,271,18.0,31.0,100,-99.99,,,-99.99,,2013-09-23 01:52:00,
2013-09-22 20:11:00,39.0,39.0,-100.00,West,276,19.0,33.0,100,-99.99,,,-99.99,,2013-09-23 02:11:00,
2013-09-22 20:22:00,38.0,38.0,-100.00,West,276,14.0,25.0,100,-99.99,,,-99.99,,2013-09-23 02:22:00,
2013-09-22 20:42:00,38.0,38.0,-100.00,West,277,13.0,26.0,100,-99.99,,,-99.99,,2013-09-23 02:42:00,
2013-09-22 20:52:00,38.0,38.0,-100.00,West,270,21.0,32.0,100,-99.99,,,-99.99,,2013-09-23 02:52:00,
2013-09-22 21:12:00,38.0,38.0,-100.00,West,272,18.0,32.0,100,-99.99,,,-99.99,,2013-09-23 03:12:00,
2013-09-22 21:22:00,38.0,38.0,-100.00,West,269,21.0,36.0,100,-99.99,,,-99.99,,2013-09-23 03:22:00,
2013-09-22 21:44:00,38.0,38.0,-100.00,West,268,22.0,32.0,100,-99.99,,,-99.99,,2013-09-23 03:44:00,
2013-09-22 21:54:00,38.0,38.0,-100.00,West,268,22.0,32.0,100,-99.99,,,-99.99,,2013-09-23 03:54:00,
2013-09-22 22:24:00,38.0,38.0,-100.00,West,266,23.0,35.0,100,-99.99,,,-99.99,,2013-09-23 04:24:00,
2013-09-22 22:43:00,38.0,38.0,-100.00,West,267,18.0,28.0,100,-99.99,,,-99.99,,2013-09-23 04:43:00,
2013-09-22 22:54:00,38.0,38.0,-100.00,West,281,9.0,22.0,100,-99.99,,,-99.99,,2013-09-23 04:54:00,
2013-09-22 23:12:00,38.0,38.0,-100.00,WNW,288,6.0,21.0,100,-99.99,,,-99.99,,2013-09-23 05:12:00,
2013-09-22 23:22:00,38.0,38.0,-100.00,WNW,290,4.0,14.0,100,-99.99,,,-99.99,,2013-09-23 05:22:00,
2013-09-22 23:43:00,37.0,37.0,-100.00,NW,305,5.0,14.0,100,-99.99,,,-99.99,,2013-09-23 05:43:00,
2013-09-22 23:53:00,37.0,37.0,-100.00,WNW,285,7.0,21.0,100,-99.99,,,-99.99,,2013-09-23 05:53:00,